Weather History for KJBR - September, 2013

Change the Weather History Date:

Monday, September 2, 2013

  Actual Average Record
Temperature  
Mean Temperature 84 °F 77 °F  
Max Temperature 94 °F 88 °F 103 °F (1925)
Min Temperature 74 °F 66 °F 50 °F (1949)
Degree Days  
Heating Degree Days 0 0  
Month to date heating degree days 0 0  
Since 1 July heating degree days 0 0  
Cooling Degree Days 19 12  
Month to date cooling degree days 37 24  
Year to date cooling degree days 1637 1570  
Growing Degree Days 34 (Base 50)    
Moisture  
Dew Point 71 °F    
Average Humidity 70    
Maximum Humidity 94    
Minimum Humidity 46    
Precipitation  
Precipitation T in 0.09 in 2.31 in (1952)
Month to date precipitation T 0.17  
Year to date precipitation 37.45 31.28  
Snow  
Snow 0.00 in 0.00 in - ()
Month to date snowfall 0.0 0.0  
Since 1 July snowfall 0.0 0.0  
Since 1 September snowfall 0.0 0.0  
Snow Depth 0.00 in    
Sea Level Pressure  
Sea Level Pressure 29.87 in    
Wind  
Wind Speed 3 mph (NNW)    
Max Wind Speed 13 mph    
Max Gust Speed 17 mph    
Visibility 9 miles    
Events Rain , Thunderstorm    
T = Trace of Precipitation, MM = Missing Value Source: NWS Daily Summary

Daily Weather History Graph

Daily Weather History Graph

Search for Another Location

Airport or City:

Trip Planner

Search our weather history database for the weather conditions in past years. The results will help you decide how hot, cold, wet, or windy it might be!

Date:

Astronomy

Sep. 02, 2013 Rise Set
Actual Time 6:35 AM CDT 7:28 PM CDT
Civil Twilight 6:09 AM CDT 7:54 PM CDT
Nautical Twilight 5:38 AM CDT 8:25 PM CDT
Astronomical Twilight 5:06 AM CDT 8:56 PM CDT
Moon 3:55 AM CDT (9/2) 5:39 PM CDT (9/2)
Length of Visible Light 13h 44m
Length of Day
12h 52m
Waning Crescent, 8% of the Moon is Illuminated
Sep 2
Waning Crescent
Sep 5
New
Sep 12
First Quarter
Sep 19
Full
Sep 26
Last Quarter

Hourly Weather History & Observations

Time (CDT) Temp. Heat Index Dew Point Humidity Pressure Visibility Wind Dir Wind Speed Gust Speed Precip Events Conditions
12:53 AM 78.1 °F - 73.0 °F 84% 29.85 in 10.0 mi Calm Calm - N/A   Mostly Cloudy
1:53 AM 77.0 °F - 73.0 °F 88% 29.83 in 8.0 mi Calm Calm - 0.00 in Rain Light Rain
2:13 AM 77.0 °F - 73.4 °F 89% 29.84 in 10.0 mi Calm Calm - 0.00 in Thunderstorm Partly Cloudy
2:42 AM 75.2 °F - 73.4 °F 94% 29.84 in 6.0 mi Calm Calm - 0.00 in   Mostly Cloudy
2:53 AM 77.0 °F - 73.9 °F 90% 29.83 in 7.0 mi Calm Calm - 0.00 in   Scattered Clouds
3:53 AM 75.9 °F - 73.0 °F 91% 29.83 in 7.0 mi Calm Calm - N/A   Partly Cloudy
4:53 AM 75.0 °F - 72.0 °F 90% 29.83 in 8.0 mi Calm Calm - N/A   Clear
5:53 AM 75.0 °F - 71.1 °F 87% 29.85 in 8.0 mi Calm Calm - N/A   Clear
6:53 AM 75.0 °F - 72.0 °F 90% 29.86 in 5.0 mi Calm Calm - N/A   Clear
7:53 AM 78.1 °F - 73.9 °F 87% 29.88 in 5.0 mi Calm Calm - 0.01 in   Clear
8:53 AM 82.9 °F 89.4 °F 73.9 °F 74% 29.88 in 10.0 mi Variable 5.8 mph - N/A   Clear
9:53 AM 87.1 °F 94.5 °F 73.0 °F 63% 29.90 in 10.0 mi NNW 3.5 mph - N/A   Clear
10:53 AM 90.0 °F 99.0 °F 73.9 °F 59% 29.91 in 10.0 mi Calm Calm - N/A   Mostly Cloudy
11:53 AM 90.0 °F 96.4 °F 71.1 °F 54% 29.92 in 10.0 mi Calm Calm - N/A   Partly Cloudy
12:53 PM 91.9 °F 98.4 °F 71.1 °F 50% 29.91 in 10.0 mi WSW 3.5 mph - N/A   Clear
1:53 PM 93.0 °F 99.0 °F 70.0 °F 47% 29.89 in 10.0 mi NW 6.9 mph - N/A   Clear
2:53 PM 93.9 °F 102.1 °F 72.0 °F 49% 29.87 in 10.0 mi North 9.2 mph 16.1 mph N/A   Partly Cloudy
3:53 PM 93.0 °F 100.1 °F 71.1 °F 49% 29.86 in 10.0 mi NNW 8.1 mph - N/A   Clear
4:53 PM 91.9 °F 97.4 °F 70.0 °F 48% 29.85 in 10.0 mi North 9.2 mph - N/A   Scattered Clouds
5:53 PM 91.0 °F 95.6 °F 69.1 °F 48% 29.85 in 10.0 mi North 6.9 mph - N/A   Clear
6:53 PM 88.0 °F 92.9 °F 70.0 °F 55% 29.86 in 10.0 mi NNE 3.5 mph - N/A   Clear
7:53 PM 79.0 °F - 71.1 °F 77% 29.88 in 10.0 mi Calm Calm - N/A   Clear
8:53 PM 81.0 °F 84.4 °F 70.0 °F 69% 29.88 in 10.0 mi North 3.5 mph - N/A   Clear
9:53 PM 75.9 °F - 69.1 °F 79% 29.90 in 10.0 mi Calm Calm - N/A   Clear
10:53 PM 78.1 °F - 66.0 °F 66% 29.91 in 10.0 mi North 4.6 mph - N/A   Clear
11:53 PM 77.0 °F - 64.9 °F 66% 29.92 in 10.0 mi North 4.6 mph - N/A   Clear